Kingstree, SC

12:24 AM EST on December 08, 2019 (GMT -0500)
Williamsburg County

Weather History for KCKI - October, 2019

Change the Weather History Date:

Sunday, October 6, 2019

  Actual Average Record
Temperature  
Mean Temperature 72 °F -  
Max Temperature 82 °F 81 °F 89 °F (2013)
Min Temperature 62 °F 50 °F 41 °F (2010)
Cooling Degree Days 7    
Growing Degree Days 22 (Base 50)    
Moisture  
Dew Point 63 °F    
Average Humidity 80    
Maximum Humidity 100    
Minimum Humidity 51    
Precipitation  
Precipitation 0.00 in - - ()
Sea Level Pressure  
Sea Level Pressure 30.20 in    
Wind  
Wind Speed 2 mph ()    
Max Wind Speed 15 mph    
Max Gust Speed 25 mph    
Visibility 7.7 miles    
Events Rain    
Averages and records for this station are not official NWS values.
T = Trace of Precipitation, MM = Missing Value Source: Averaged Metar Reports

Daily Weather History Graph

Daily Weather History Graph

Search for Another Location

Airport or City:

Astronomy

Oct. 06, 2019 Rise Set
Actual Time 7:17 AM EDT 6:57 PM EDT
Civil Twilight 6:52 AM EDT 7:22 PM EDT
Nautical Twilight 6:23 AM EDT 7:51 PM EDT
Astronomical Twilight 5:54 AM EDT 8:19 PM EDT
Moon 3:14 PM EDT (10/6) 12:35 AM EDT (10/6)
Length of Visible Light 12h 29m
Length of Day
11h 40m
First Quarter, 59% of the Moon is Illuminated
Oct 6
First Quarter
Oct 13
Full
Oct 21
Last Quarter
Oct 27
New
Nov 4
First Quarter

Hourly Weather History & Observations

Time (EDT) Temp. Heat Index Dew Point Humidity Pressure Visibility Wind Dir Wind Speed Gust Speed Precip Events Conditions
12:15 AM 62.6 °F - 60.8 °F 94% 30.21 in 10.0 mi Calm Calm - N/A   Overcast
12:35 AM 62.6 °F - 60.8 °F 94% 30.21 in 7.0 mi NNE 3.5 mph - N/A   Overcast
12:55 AM 64.4 °F - 60.8 °F 88% 30.20 in 10.0 mi Calm Calm - N/A   Overcast
1:35 AM 62.6 °F - 60.8 °F 94% 30.20 in 7.0 mi Calm Calm - N/A   Overcast
1:55 AM 64.4 °F - 60.8 °F 88% 30.21 in 7.0 mi Calm Calm - N/A   Overcast
2:15 AM 64.4 °F - 60.8 °F 88% 30.21 in 7.0 mi Calm Calm - N/A   Overcast
2:35 AM 62.6 °F - 60.8 °F 94% 30.21 in 7.0 mi Calm Calm - N/A   Overcast
2:55 AM 62.6 °F - 60.8 °F 94% 30.19 in 7.0 mi Calm Calm - N/A   Overcast
3:15 AM 62.6 °F - 60.8 °F 94% 30.19 in 7.0 mi Calm Calm - N/A   Overcast
3:35 AM 62.6 °F - 60.8 °F 94% 30.19 in 7.0 mi Calm Calm - N/A   Mostly Cloudy
3:55 AM 62.6 °F - 60.8 °F 94% 30.19 in 7.0 mi Calm Calm - N/A   Scattered Clouds
4:15 AM 62.6 °F - 60.8 °F 94% 30.19 in 10.0 mi Calm Calm - N/A   Mostly Cloudy
4:35 AM 62.6 °F - 60.8 °F 94% 30.19 in 7.0 mi Calm Calm - N/A   Scattered Clouds
4:55 AM 62.6 °F - 60.8 °F 94% 30.19 in 7.0 mi Calm Calm - N/A   Clear
5:15 AM 62.6 °F - 60.8 °F 94% 30.18 in 7.0 mi Calm Calm - N/A   Clear
5:35 AM 62.6 °F - 60.8 °F 94% 30.18 in 7.0 mi Calm Calm - N/A   Clear
5:55 AM 62.6 °F - 60.8 °F 94% 30.19 in 7.0 mi Calm Calm - N/A   Clear
6:15 AM 62.6 °F - 60.8 °F 94% 30.20 in 7.0 mi Calm Calm - N/A   Clear
6:35 AM 62.6 °F - 60.8 °F 94% 30.20 in 10.0 mi Calm Calm - N/A   Clear
6:55 AM 62.6 °F - 60.8 °F 94% 30.20 in 7.0 mi Calm Calm - N/A   Clear
7:15 AM 62.6 °F - 60.8 °F 94% 30.21 in 7.0 mi Calm Calm - N/A   Clear
7:35 AM 62.6 °F - 60.8 °F 94% 30.22 in 7.0 mi Calm Calm - N/A   Clear
7:55 AM 62.6 °F - 60.8 °F 94% 30.22 in 7.0 mi Calm Calm - N/A   Clear
8:15 AM 62.6 °F - 62.6 °F 100% 30.22 in 7.0 mi Calm Calm - N/A   Clear
8:35 AM 62.6 °F - 62.6 °F 100% 30.23 in 5.0 mi Calm Calm - N/A   Clear
8:55 AM 62.6 °F - 62.6 °F 100% 30.24 in 7.0 mi Calm Calm - N/A   Clear
9:15 AM 64.4 °F - 62.6 °F 94% 30.24 in 7.0 mi Calm Calm - N/A   Scattered Clouds
9:35 AM 64.4 °F - 62.6 °F 94% 30.24 in 7.0 mi NNE 4.6 mph - N/A   Mostly Cloudy
9:55 AM 68.0 °F - 62.6 °F 83% 30.24 in 4.0 mi Calm Calm - N/A   Mostly Cloudy
10:15 AM 69.8 °F - 62.6 °F 78% 30.24 in 7.0 mi North 3.5 mph - N/A   Scattered Clouds
10:35 AM 71.6 °F - 62.6 °F 73% 30.24 in 7.0 mi Calm Calm - N/A   Scattered Clouds
10:55 AM 73.4 °F - 64.4 °F 73% 30.24 in 7.0 mi Calm Calm - N/A   Clear
11:15 AM 77.0 °F - 64.4 °F 65% 30.24 in 7.0 mi Calm Calm - N/A   Clear
11:35 AM 77.0 °F - 64.4 °F 65% 30.23 in 7.0 mi NNE 4.6 mph - N/A   Scattered Clouds
11:55 AM 78.8 °F - 64.4 °F 61% 30.23 in 7.0 mi ENE 4.6 mph - N/A   Scattered Clouds
12:15 PM 80.6 °F 82.3 °F 64.4 °F 58% 30.23 in 7.0 mi ENE 5.8 mph - N/A   Clear
12:35 PM 80.6 °F 82.3 °F 64.4 °F 58% 30.22 in 7.0 mi NE 6.9 mph - N/A   Scattered Clouds
12:55 PM 80.6 °F 82.3 °F 64.4 °F 58% 30.22 in 7.0 mi NNE 3.5 mph - N/A   Scattered Clouds
1:15 PM 82.4 °F 83.9 °F 64.4 °F 54% 30.21 in 7.0 mi ENE 6.9 mph - N/A   Scattered Clouds
1:35 PM 82.4 °F 83.9 °F 64.4 °F 54% 30.21 in 7.0 mi ENE 6.9 mph - N/A   Scattered Clouds
1:55 PM 78.8 °F - 62.6 °F 57% 30.21 in 7.0 mi East 15.0 mph 25.3 mph N/A   Mostly Cloudy
2:15 PM 75.2 °F - 68.0 °F 78% 30.20 in 10.0 mi ESE 8.1 mph - N/A Rain Light Rain
2:35 PM 78.8 °F - 64.4 °F 61% 30.20 in 10.0 mi ESE 4.6 mph - N/A   Overcast
2:55 PM 78.8 °F - 64.4 °F 61% 30.19 in 10.0 mi ENE 3.5 mph - N/A   Overcast
3:15 PM 80.6 °F 82.3 °F 64.4 °F 58% 30.18 in 10.0 mi East 6.9 mph - N/A   Scattered Clouds
3:35 PM 82.4 °F 83.4 °F 62.6 °F 51% 30.18 in 10.0 mi East 10.4 mph - N/A   Scattered Clouds
3:55 PM 80.6 °F 81.8 °F 62.6 °F 54% 30.18 in 10.0 mi East 9.2 mph 18.4 mph N/A   Mostly Cloudy
4:15 PM 80.6 °F 81.8 °F 62.6 °F 54% 30.18 in 10.0 mi East 11.5 mph 16.1 mph N/A   Mostly Cloudy
4:35 PM 78.8 °F - 62.6 °F 57% 30.18 in 10.0 mi East 8.1 mph - N/A   Mostly Cloudy
4:55 PM 78.8 °F - 62.6 °F 57% 30.18 in 10.0 mi ENE 4.6 mph - N/A   Mostly Cloudy
5:15 PM 78.8 °F - 60.8 °F 54% 30.18 in 10.0 mi East 8.1 mph - N/A   Scattered Clouds
5:35 PM 78.8 °F - 60.8 °F 54% 30.18 in 10.0 mi ENE 6.9 mph - N/A   Scattered Clouds
5:55 PM 78.8 °F - 62.6 °F 57% 30.18 in 10.0 mi East 5.8 mph - N/A   Clear
6:15 PM 77.0 °F - 62.6 °F 61% 30.19 in 10.0 mi ENE 9.2 mph - N/A   Mostly Cloudy
6:55 PM 73.4 °F - 64.4 °F 73% 30.19 in 7.0 mi Calm Calm - N/A   Clear
7:15 PM 73.4 °F - 62.6 °F 69% 30.18 in 7.0 mi ENE 4.6 mph - N/A   Clear
7:35 PM 71.6 °F - 64.4 °F 78% 30.19 in 7.0 mi Calm Calm - N/A   Clear
7:55 PM 71.6 °F - 64.4 °F 78% 30.19 in 10.0 mi Calm Calm - N/A   Clear
8:15 PM 71.6 °F - 64.4 °F 78% 30.19 in 7.0 mi Calm Calm - N/A   Clear
8:35 PM 69.8 °F - 64.4 °F 83% 30.19 in 7.0 mi Calm Calm - N/A   Clear
8:55 PM 69.8 °F - 66.2 °F 88% 30.19 in 7.0 mi Calm Calm - N/A   Clear
9:15 PM 68.0 °F - 68.0 °F 100% 30.19 in 7.0 mi Calm Calm - N/A   Clear
9:35 PM 68.0 °F - 68.0 °F 100% 30.19 in 7.0 mi Calm Calm - N/A   Clear
9:55 PM 68.0 °F - 66.2 °F 94% 30.19 in 7.0 mi Calm Calm - N/A   Clear
10:15 PM 68.0 °F - 66.2 °F 94% 30.19 in 7.0 mi Calm Calm - N/A   Clear
10:35 PM 68.0 °F - 64.4 °F 88% 30.19 in 7.0 mi Calm Calm - N/A   Clear
10:55 PM 68.0 °F - 66.2 °F 94% 30.19 in 7.0 mi Calm Calm - N/A   Clear
11:15 PM 66.2 °F - 64.4 °F 94% 30.19 in 7.0 mi Calm Calm - N/A   Clear
11:35 PM 66.2 °F - 64.4 °F 94% 30.18 in 7.0 mi Calm Calm - N/A   Clear
11:55 PM 66.2 °F - 64.4 °F 94% 30.17 in 10.0 mi Calm Calm - N/A   Clear